Location: Great Chart
(51.1333°N, 0.8333°E)
Time: 11:22:30
(UTC+00:00)

USA 307 - Pass Details

Date: 19 September 2020
Orbit: 567 x 582 km, 54.0° (Epoch: 28 October)

Event Time Altitude Azimuth Distance (km) Brightness Sun altitude
Exits shadow 02:52:09 30° 129° (SE) 1,031 4.2 -25.0°
Drops below altitude 10° 02:55:30 10° 78° (ENE) 1,869 6.4 -24.6°
Sets 02:57:55 0° 68° (ENE) 2,769 7.7 -24.3°
